Location: Corcelles
(46.1547°N, 4.7234°E)
Time: 10:54:28
(UTC+00:00)

BREEZE-M DEB (TANK) - Pass Details

Date: 14 July 2020
Orbit: 427 x 13239 km, 46.0° (Epoch: 06 August)

Event Time Altitude Azimuth Distance (km) Brightness Sun altitude
Rises 00:02:14 0° 250° (WSW) 7,795 8.4 -22.1°
Reaches altitude 10° 00:09:20 10° 249° (WSW) 5,045 7.4 -22.0°
Maximum altitude 00:19:43 74° 167° (SSE) 918 3.6 -21.8°
Drops below altitude 10° 00:23:23 10° 82° (E) 1,864 5.7 -21.7°
Sets 00:24:52 0° 80° (E) 2,556 6.5 -21.7°
